User: anonymous   Login
Location: Codford Saint Peter
(51.1597°N, 2.0531°W)
Time: 09:34:14
(UTC+00:00)
Language:

ELECTRON R/B - Orbit

View from above orbital plane
View from above orbital plane
View from above satellite
View from above satellite

Ground track
Ground track

The orbit data is extracted from the following two-line orbital elements,

1 44227U 19026C   22276.59469491  .00030723  00000-0  96612-3 0  9995
2 44227  40.0184  99.6739 0002946  69.1153 290.9967 15.32267539190305
Epoch (UTC): 03 October 2022 14:16:21
Eccentricity: 0.0002946
inclination: 40.0184°
perigee height: 467 km
apogee height: 471 km
right ascension of ascending node: 99.6739°
argument of perigee: 69.1153°
revolutions per day: 15.32267539
mean anomaly at epoch: 290.9967°
orbit number at epoch: 19030

The dashed part of the orbit path shows where the satellite is in the earth's shadow,  

DLR